[[{"header":{"parameterUnit":"m.s-1","parameterCategory":1,"la1":30.2991,"la2":30.254,"lo1":-89.0895,"lo2":-89.0444,"dy":0.0017,"dx":0.0017,"nx":28,"ny":28,"refTime":"2024-10-21T21:00:00:Z","depth":0,"parameterNumber":2,"parameterNumberName":"U-component_of_WINDS"},"data":[0,0,0,0,0,0,0,0,0,0,0,0,0,0,0,0,0,0,0,0,0,0,0,0,0,0,0,0,0,0,0,0,0,0,0,0,0,0,0,0,0,0,0,0,0,0,0,0,0,0,0,0,0,0,0,0,0,0,-0.1558,-0.1559,0,-0.164,-0.1641,-0.1642,-0.167,-0.167,-0.1669,-0.1669,-0.1756,-0.1758,-0.1761,0,0,0,0,0,0,0,0,0,0,0,0,0,-0.143,-0.1432,-0.1558,-0.1559,-0.156,-0.164,-0.1641,-0.1642,-0.167,-0.167,-0.1669,-0.1669,-0.1755,-0.1758,-0.1761,0,0,0,0,0,0,0,0,0,0,0,0,0,-0.1496,-0.1433,-0.1558,-0.1584,-0.1587,-0.164,-0.1641,-0.1642,-0.167,-0.167,-0.1669,-0.1669,-0.1754,-0.1758,-0.1761,-0.1795,0,0,-0.1773,-0.1775,0,0,0,0,0,0,0,0,-0.1492,-0.1501,-0.1579,-0.1582,-0.1586,-0.1644,-0.1628,-0.1694,-0.167,-0.1639,-0.1669,-0.1668,-0.1719,-0.1726,-0.1742,-0.18,-0.1803,-0.1774,-0.1776,-0.1778,-0.1779,0,0,0,0,0,0,0,-0.1488,-0.1498,-0.1591,-0.158,-0.1584,-0.1592,-0.1601,-0.164,-0.1681,-0.1641,-0.1644,-0.1653,-0.1721,-0.1739,-0.1745,-0.1805,-0.1774,-0.1777,-0.178,-0.1781,-0.1895,-0.1896,0,0,0,0,0,0,-0.1478,-0.1494,-0.1588,-0.1593,-0.1537,-0.1595,-0.1605,-0.1626,-0.168,-0.1688,-0.1653,-0.1654,-0.1732,-0.174,-0.1748,-0.1792,-0.1778,-0.1781,-0.1784,-0.1894,-0.1895,-0.1896,0,0,0,0,0,0,-0.1476,-0.1487,-0.1585,-0.1544,-0.1557,-0.1598,-0.1621,-0.1628,-0.1646,-0.1689,-0.1697,-0.1663,-0.1732,-0.1742,-0.1783,-0.1796,-0.1783,-0.1787,-0.1894,-0.1895,-0.1896,-0.1881,0,0,0,0,0,0,-0.1472,-0.1485,-0.1498,-0.1544,-0.1559,-0.1618,-0.1622,-0.163,-0.1652,-0.1653,-0.1701,-0.1708,-0.1732,-0.1777,-0.1787,-0.1801,-0.179,-0.1893,-0.1894,-0.1895,-0.1881,-0.1881,-0.1882,0,0,0,0,0,-0.1467,-0.1491,-0.1498,-0.151,-0.1576,-0.1619,-0.1628,-0.1654,-0.1653,-0.1666,-0.1694,-0.1707,-0.1792,-0.1781,-0.1793,-0.1808,-0.1892,-0.1894,-0.1895,-0.188,-0.1881,-0.1882,0,0,0,0,0,0,-0.1447,-0.1498,-0.1506,-0.1546,-0.1578,-0.1623,-0.1641,-0.1654,-0.1688,-0.1688,-0.172,-0.1731,-0.177,-0.1793,-0.178,-0.1844,-0.1843,-0.1847,-0.1828,-0.1829,-0.183,-0.1824,-0.1793,0,0,0,0,0,-0.1446,-0.1476,-0.1519,-0.155,-0.1566,-0.1601,-0.162,-0.1638,-0.1673,-0.1687,-0.1718,-0.1752,-0.1787,-0.1809,-0.1843,-0.1883,-0.1895,-0.1899,-0.19,-0.1901,-0.1904,-0.1929,-0.1932,-0.1901,-0.1901,-0.1901,0,0,-0.1447,-0.1478,-0.1495,-0.1547,-0.1574,-0.1605,-0.1612,-0.1645,-0.1669,-0.1692,-0.1733,-0.1757,-0.1797,-0.1838,-0.1858,-0.1859,-0.1915,-0.1902,-0.1902,-0.1906,-0.193,-0.1933,-0.1936,-0.1902,-0.1902,-0.1902,0,0,-0.1464,-0.149,-0.1519,-0.1545,-0.1585,-0.1609,-0.1615,-0.1659,-0.1676,-0.1717,-0.1736,-0.1765,-0.1824,-0.1852,-0.1874,-0.1902,-0.1915,-0.1912,-0.1917,-0.194,-0.1943,-0.1945,-0.1956,-0.196,-0.1915,-0.1915,-0.1915,0,-0.146,-0.1507,-0.1532,-0.1564,-0.1587,-0.1608,-0.1639,-0.1663,-0.1713,-0.1729,-0.1728,-0.1803,-0.1831,-0.188,-0.1887,-0.1903,-0.1914,-0.1908,-0.194,-0.1942,-0.1945,-0.1956,-0.196,-0.1914,-0.1915,-0.1915,-0.1915,0,-0.15,-0.1533,-0.1551,-0.1598,-0.1623,-0.1653,-0.1685,-0.1707,-0.1722,-0.1746,-0.1788,-0.1823,-0.1865,-0.1878,-0.1893,-0.1929,-0.1928,-0.1933,-0.1933,-0.1947,-0.1958,-0.1963,-0.1914,-0.1914,-0.1914,-0.1914,0,0,-0.1508,-0.1568,-0.1575,-0.1596,-0.1642,-0.1668,-0.17,-0.1741,-0.176,-0.1793,-0.1822,-0.1871,-0.1876,-0.1901,-0.192,-0.194,-0.1962,-0.1943,-0.1944,-0.1947,-0.2005,-0.2003,-0.2007,-0.197,-0.1971,-0.1971,-0.2003,0,-0.1532,-0.159,-0.1614,-0.1661,-0.1692,-0.1713,-0.1741,-0.1773,-0.1796,-0.1826,-0.1852,-0.1886,-0.189,-0.1905,-0.1926,-0.1954,-0.1974,-0.1952,-0.1999,-0.2,-0.199,-0.2013,-0.201,-0.2038,-0.2007,-0.2008,-0.2008,0,-0.1569,-0.1601,-0.1651,-0.1694,-0.1708,-0.1733,-0.1772,-0.18,-0.1837,-0.1853,-0.188,-0.1898,-0.1934,-0.193,-0.1981,-0.1965,-0.1986,-0.2003,-0.2004,-0.2011,-0.2006,-0.2022,-0.2047,-0.2052,-0.2015,-0.2015,-0.2014,0,-0.1571,-0.1628,-0.1665,-0.1683,-0.1733,-0.175,-0.1772,-0.1808,-0.1831,-0.1866,-0.1881,-0.192,-0.1941,-0.1971,-0.1999,-0.1993,-0.2048,-0.2046,-0.2063,-0.2063,-0.2076,-0.2075,-0.2106,-0.2085,-0.2085,-0.2085,-0.2085,0,-0.1597,-0.1627,-0.1667,-0.1691,-0.1725,-0.1753,-0.1787,-0.1811,-0.1842,-0.1872,-0.1891,-0.1919,-0.1953,-0.1985,-0.2007,-0.2047,-0.2056,-0.207,-0.2076,-0.207,-0.2068,-0.2085,-0.2085,-0.2086,-0.2086,-0.2086,-0.2086,0,-0.1606,-0.1634,-0.1677,-0.172,-0.1732,-0.1756,-0.1794,-0.1818,-0.1841,-0.1878,-0.1888,-0.1925,-0.1964,-0.1994,-0.2045,-0.206,-0.2102,-0.2108,-0.209,-0.2093,-0.2109,-0.2108,-0.2154,-0.2162,-0.2134,-0.2134,-0.2134,0,-0.1622,-0.1645,-0.1691,-0.1712,-0.1733,-0.1766,-0.1789,-0.1817,-0.1841,-0.1885,-0.1904,-0.1944,-0.1977,-0.2038,-0.2071,-0.211,-0.2118,-0.2131,-0.2124,-0.2117,-0.212,-0.2119,-0.2123,-0.2132,-0.2132,-0.2133,-0.2133,0,-0.1647,-0.1659,-0.1691,-0.1729,-0.1756,-0.1787,-0.1819,-0.1835,-0.1869,-0.1894,-0.1934,-0.196,-0.2011,-0.2051,-0.2093,-0.2117,-0.2132,-0.2134,-0.2141,-0.2135,-0.2125,-0.2133,-0.2094,-0.2134,-0.2134,-0.2133,-0.2133,-0.2133,-0.1661,-0.1683,-0.1719,-0.1755,-0.1781,-0.1811,-0.1836,-0.1862,-0.1895,-0.1938,-0.1953,-0.1994,-0.2031,-0.2089,-0.2113,-0.2146,-0.2147,-0.2156,-0.2159,-0.2161,-0.2161,-0.2117,-0.2154,-0.2154,-0.2154,-0.2154,-0.2154,0,-0.1689,-0.1712,-0.1745,-0.1788,-0.1817,-0.1825,-0.1861,-0.1885,-0.192,-0.1953,-0.1985,-0.2031,-0.207,-0.2105,-0.2146,-0.2166,-0.2173,-0.2176,-0.2176,-0.2181,-0.2157,-0.2148,-0.2169,-0.2169,-0.2169,-0.2169,-0.2169,-0.2169,-0.1706,-0.1745,-0.1762,-0.1815,-0.1839,-0.1879,-0.1898,-0.1926,-0.1952,-0.2002,-0.2034,-0.2056,-0.2091,-0.2134,-0.217,-0.218,-0.2195,-0.2196,-0.2207,-0.2185,-0.2183,-0.2181,-0.2173,-0.2198,-0.2198,-0.2229,-0.2229,-0.2229]},{"header":{"parameterUnit":"m.s-1","parameterCategory":1,"la1":30.2991,"la2":30.254,"lo1":-89.0895,"lo2":-89.0444,"dy":0.0017,"dx":0.0017,"nx":28,"ny":28,"refTime":"2024-10-21T21:00:00:Z","depth":0,"parameterNumber":3,"parameterNumberName":"V-component_of_WINDS"},"data":[0,0,0,0,0,0,0,0,0,0,0,0,0,0,0,0,0,0,0,0,0,0,0,0,0,0,0,0,0,0,0,0,0,0,0,0,0,0,0,0,0,0,0,0,0,0,0,0,0,0,0,0,0,0,0,0,0,0,-2.1557,-2.1558,0,-2.1637,-2.1638,-2.1639,-2.1644,-2.1643,-2.1642,-2.1642,-2.1721,-2.1724,-2.1727,0,0,0,0,0,0,0,0,0,0,0,0,0,-2.1407,-2.141,-2.1557,-2.1558,-2.1559,-2.1637,-2.1638,-2.1639,-2.1644,-2.1643,-2.1642,-2.1641,-2.172,-2.1724,-2.1727,0,0,0,0,0,0,0,0,0,0,0,0,0,-2.1478,-2.141,-2.1557,-2.1571,-2.1573,-2.1637,-2.1638,-2.1639,-2.1645,-2.1643,-2.1642,-2.1641,-2.1719,-2.1723,-2.1728,-2.1782,0,0,-2.1741,-2.1743,0,0,0,0,0,0,0,0,-2.1474,-2.1483,-2.1568,-2.157,-2.1573,-2.1629,-2.1614,-2.1687,-2.1645,-2.1617,-2.1642,-2.164,-2.1692,-2.1698,-2.1716,-2.1786,-2.1789,-2.1742,-2.1744,-2.1746,-2.1748,0,0,0,0,0,0,0,-2.1469,-2.148,-2.1589,-2.1569,-2.1572,-2.1573,-2.1581,-2.1628,-2.1661,-2.162,-2.162,-2.163,-2.1693,-2.1712,-2.1718,-2.179,-2.1742,-2.1746,-2.1748,-2.175,-2.1909,-2.1911,0,0,0,0,0,0,-2.1462,-2.1476,-2.1586,-2.1591,-2.1519,-2.1577,-2.1586,-2.1612,-2.166,-2.1667,-2.1631,-2.163,-2.1705,-2.1713,-2.1721,-2.1788,-2.1746,-2.1751,-2.1753,-2.1908,-2.191,-2.1911,0,0,0,0,0,0,-2.1458,-2.1471,-2.1583,-2.1534,-2.1548,-2.1581,-2.161,-2.1615,-2.1634,-2.1669,-2.1675,-2.1645,-2.1704,-2.1715,-2.1767,-2.1791,-2.1753,-2.1757,-2.1906,-2.1908,-2.191,-2.1922,0,0,0,0,0,0,-2.1454,-2.147,-2.1491,-2.1534,-2.1551,-2.1628,-2.1611,-2.1617,-2.1642,-2.1641,-2.1683,-2.1689,-2.1704,-2.1761,-2.1772,-2.1796,-2.176,-2.1904,-2.1907,-2.191,-2.192,-2.1925,-2.1929,0,0,0,0,0,-2.1449,-2.1491,-2.1492,-2.1506,-2.1578,-2.163,-2.1639,-2.1656,-2.1644,-2.1665,-2.1688,-2.1688,-2.1786,-2.1766,-2.1778,-2.1805,-2.1902,-2.1906,-2.1909,-2.1918,-2.1924,-2.1929,0,0,0,0,0,0,-2.1449,-2.1497,-2.1499,-2.1556,-2.1589,-2.163,-2.1658,-2.1661,-2.1698,-2.1695,-2.1714,-2.1724,-2.1776,-2.1795,-2.1772,-2.186,-2.1843,-2.1849,-2.1845,-2.1851,-2.1856,-2.185,-2.1764,0,0,0,0,0,-2.1456,-2.1495,-2.1534,-2.1581,-2.1597,-2.1625,-2.1648,-2.1658,-2.1693,-2.1706,-2.1732,-2.1765,-2.1804,-2.1828,-2.1866,-2.1923,-2.1932,-2.1947,-2.1952,-2.1955,-2.196,-2.1993,-2.2,-2.1923,-2.1923,-2.1923,0,0,-2.1471,-2.1501,-2.1524,-2.1582,-2.1608,-2.1648,-2.1636,-2.1678,-2.1707,-2.1712,-2.1764,-2.1784,-2.1822,-2.1877,-2.1903,-2.1895,-2.1984,-2.196,-2.1962,-2.1966,-2.1997,-2.2004,-2.2011,-2.1925,-2.1925,-2.1924,0,0,-2.1517,-2.1544,-2.1587,-2.1614,-2.1654,-2.1673,-2.1683,-2.1724,-2.1738,-2.179,-2.1795,-2.183,-2.1895,-2.1922,-2.1945,-2.2002,-2.2004,-2.2014,-2.2037,-2.2068,-2.2074,-2.208,-2.2101,-2.2108,-2.2019,-2.2019,-2.2019,0,-2.153,-2.159,-2.1608,-2.165,-2.1675,-2.1683,-2.1726,-2.1751,-2.1801,-2.1818,-2.1809,-2.1892,-2.1918,-2.198,-2.1994,-2.2012,-2.2024,-2.2009,-2.2072,-2.2078,-2.2083,-2.2103,-2.2111,-2.202,-2.202,-2.202,-2.2019,0,-2.1603,-2.1645,-2.1674,-2.1724,-2.1752,-2.1794,-2.1819,-2.1845,-2.1853,-2.1872,-2.1926,-2.1957,-2.2001,-2.2017,-2.2024,-2.208,-2.2074,-2.2068,-2.2052,-2.2091,-2.2111,-2.2118,-2.2021,-2.2021,-2.2021,-2.202,0,0,-2.1652,-2.1712,-2.1722,-2.1745,-2.1791,-2.1823,-2.1866,-2.191,-2.1932,-2.1967,-2.2003,-2.2059,-2.2055,-2.208,-2.2091,-2.2118,-2.2162,-2.2109,-2.2111,-2.2118,-2.2226,-2.223,-2.2239,-2.2164,-2.2165,-2.2166,-2.2223,0,-2.1704,-2.1781,-2.1799,-2.1865,-2.1903,-2.1911,-2.1948,-2.198,-2.1999,-2.2034,-2.2055,-2.2095,-2.2086,-2.2101,-2.2128,-2.2151,-2.2184,-2.2147,-2.2197,-2.2199,-2.2188,-2.2249,-2.2253,-2.2305,-2.223,-2.2232,-2.2233,0,-2.1774,-2.1812,-2.1882,-2.1923,-2.194,-2.1973,-2.2016,-2.2049,-2.2085,-2.2097,-2.2126,-2.2135,-2.2179,-2.216,-2.2222,-2.2196,-2.2218,-2.2232,-2.2234,-2.224,-2.2218,-2.2256,-2.2322,-2.233,-2.2245,-2.2244,-2.2243,0,-2.1803,-2.1871,-2.1922,-2.1941,-2.1991,-2.2014,-2.2035,-2.2071,-2.2096,-2.2133,-2.215,-2.2191,-2.2213,-2.2244,-2.2263,-2.2248,-2.2323,-2.2306,-2.2334,-2.2334,-2.235,-2.2349,-2.242,-2.2363,-2.2363,-2.2363,-2.2363,0,-2.1859,-2.1902,-2.1936,-2.1967,-2.2015,-2.2035,-2.2082,-2.2103,-2.2135,-2.217,-2.2179,-2.2212,-2.2235,-2.2271,-2.2286,-2.2335,-2.2345,-2.2355,-2.2359,-2.2355,-2.2354,-2.2369,-2.2366,-2.2365,-2.2365,-2.2364,-2.2364,0,-2.19,-2.1924,-2.198,-2.2023,-2.2034,-2.2068,-2.2104,-2.2135,-2.2154,-2.2199,-2.2211,-2.2241,-2.2284,-2.2306,-2.2359,-2.237,-2.2425,-2.2426,-2.2413,-2.2414,-2.2442,-2.2439,-2.2526,-2.2539,-2.2473,-2.2473,-2.2474,0,-2.1934,-2.1967,-2.2014,-2.2038,-2.2061,-2.21,-2.2127,-2.2148,-2.2175,-2.222,-2.2245,-2.2288,-2.2325,-2.2393,-2.2419,-2.246,-2.2463,-2.249,-2.2469,-2.2464,-2.2463,-2.2461,-2.2465,-2.2494,-2.2495,-2.2495,-2.2496,0,-2.1992,-2.2003,-2.2041,-2.2084,-2.2116,-2.215,-2.2184,-2.2204,-2.223,-2.226,-2.2305,-2.2333,-2.2388,-2.2431,-2.2474,-2.2496,-2.25,-2.2502,-2.2511,-2.2507,-2.2498,-2.2504,-2.2423,-2.25,-2.25,-2.2499,-2.2499,-2.2499,-2.2031,-2.2061,-2.2099,-2.2141,-2.2169,-2.2201,-2.2232,-2.2256,-2.2294,-2.2341,-2.2351,-2.2398,-2.2434,-2.2493,-2.2516,-2.2553,-2.2547,-2.2559,-2.2563,-2.2566,-2.2567,-2.2492,-2.256,-2.256,-2.256,-2.256,-2.256,0,-2.209,-2.2115,-2.2154,-2.2202,-2.2235,-2.2237,-2.2275,-2.2303,-2.2345,-2.2378,-2.2414,-2.2465,-2.2508,-2.2538,-2.2581,-2.2605,-2.2608,-2.2615,-2.2614,-2.2619,-2.257,-2.2558,-2.2612,-2.2612,-2.2612,-2.2612,-2.2612,-2.2612,-2.2125,-2.2176,-2.2191,-2.2257,-2.2281,-2.2328,-2.235,-2.2379,-2.2406,-2.2464,-2.2499,-2.2519,-2.2551,-2.2597,-2.2635,-2.2643,-2.2659,-2.2666,-2.2674,-2.2627,-2.2622,-2.2617,-2.2606,-2.2669,-2.2669,-2.272,-2.272,-2.2721]}]]